Wind_Speed
19 18 16 13 11 10 8 6 4 5 5 6 7 8 9 3 1 2 4 4 4 4 2 5 8 8 8 6 7 8 9 10 11 11 13 13 12 13 12 13 13 15 14
17 15 12 11 11 10 6 5 4 4 4 3 3 3 5 6 3 2 1 5 6 6 6 7 8 9 9 11 13 12 11 11 11 11 11 11 10 11 11 12 12 12 13
14 14 14 13 10 9 11 8 6 3 2 4 2 3 4 5 7 4 4 5 5 7 7 7 8 11 11 12 15 17 16 15 14 11 10 9 9 10 11 12 13 14 14
16 14 12 12 12 16 14 12 10 9 7 6 5 6 6 5 4 4 5 8 8 8 9 9 9 10 12 13 15 16 17 17 15 13 10 9 9 10 11 12 13 14 15
16 15 18 19 19 19 17 15 14 13 11 10 12 12 12 11 6 6 7 8 12 12 13 13 11 12 12 13 12 13 14 16 15 13 13 12 9 10 12 13 14 15 16
18 19 18 18 20 20 20 18 17 14 15 17 17 16 14 15 12 10 10 8 12 15 16 15 17 18 16 16 15 15 17 15 14 16 15 15 14 14 13 14 15 15 15
21 23 23 21 21 22 21 19 17 19 22 21 19 18 18 16 16 15 14 12 13 12 15 16 18 18 18 18 18 19 18 17 17 15 18 18 18 15 12 13 15 17 18
22 23 22 22 22 25 24 22 21 22 23 24 25 23 19 22 23 25 19 15 15 15 17 17 20 20 24 20 20 22 19 18 17 20 20 23 23 21 19 16 17 19 21
27 25 25 23 25 26 29 24 23 22 22 22 28 24 12 13 17 22 17 15 17 20 17 20 21 22 24 23 21 20 20 20 22 23 25 24 24 24 24 20 20 21 22
29 26 28 28 26 28 27 25 27 26 24 24 25 28 24 7 7 9 11 13 17 19 20 22 21 21 23 24 24 24 25 27 27 28 26 25 25 27 28 25 22 22 23
31 30 31 29 31 32 28 29 29 28 31 26 27 32 31 26 21 17 15 15 13 16 19 20 20 23 25 29 30 29 29 27 30 27 25 26 27 28 29 30 28 27 24
26 28 29 31 34 36 32 29 28 30 30 31 27 25 24 28 24 20 17 19 23 23 14 14 20 19 24 30 32 30 30 33 30 27 29 29 29 29 33 31 29 25 23
31 28 28 30 29 34 33 29 27 28 31 30 24 26 24 28 28 23 22 23 22 23 25 25 27 19 19 22 25 28 31 30 28 29 30 31 29 31 33 34 32 29 26
32 30 30 28 21 21 19 20 26 29 31 22 16 22 24 27 24 23 21 21 22 24 27 29 27 25 24 22 23 26 29 29 30 28 29 30 29 30 33 35 33 31 29
27 29 27 22 15 13 14 19 26 28 19 16 21 24 25 22 21 20 19 22 21 29 32 32 32 25 24 22 24 24 26 28 30 31 29 29 30 33 31 32 31 30 28
29 32 25 19 17 17 20 20 23 20 18 21 23 23 18 18 18 19 17 17 21 27 33 32 31 27 24 27 30 32 32 33 32 32 31 32 32 32 28 28 26 26 27
24 25 22 19 19 19 19 22 18 19 21 24 22 17 14 15 15 15 17 20 22 26 31 36 35 32 32 32 33 31 35 38 39 39 36 32 34 31 30 26 25 26 27
24 18 18 19 18 19 20 18 19 21 22 17 13 11 12 14 16 17 18 22 24 26 31 38 38 38 37 35 35 36 39 40 36 31 30 32 29 31 26 25 26 26 24
15 17 18 18 17 20 19 17 18 16 14 12 10 12 15 17 18 19 21 24 26 28 31 35 41 40 40 38 36 34 34 34 32 38 27 32 29 25 26 26 28 24 22
14 15 15 16 17 17 15 15 14 12 11 10 11 12 14 14 13 14 17 21 25 28 30 34 39 42 43 44 42 40 38 39 40 37 33 30 34 28 28 30 27 24 25
13 13 14 16 15 13 13 12 12 11 11 11 10 12 12 12 14 17 20 23 25 28 30 33 37 39 42 42 40 41 41 41 36 35 39 34 26 29 31 28 27 26 25
14 14 14 13 12 11 11 11 11 10 10 11 12 11 13 16 20 22 24 28 30 32 35 34 36 36 38 35 33 36 39 40 36 35 39 33 21 28 28 29 28 29 21
16 14 13 12 12 11 11 10 9 8 7 9 12 15 17 20 23 27 30 33 35 36 39 42 45 44 42 39 36 34 36 37 37 32 29 28 23 27 27 28 22 17 20
16 13 11 11 13 13 11 8 7 8 9 11 14 17 20 22 23 28 32 35 36 36 36 36 37 40 40 41 39 34 31 35 36 34 26 24 25 27 25 22 16 18 22
13 12 13 13 10 10 9 9 10 11 13 15 16 15 18 20 23 26 30 34 37 37 34 32 32 33 35 36 34 32 35 30 33 33 26 28 27 25 21 18 17 21 23
15 16 15 13 12 12 13 14 14 14 14 13 14 16 19 21 22 23 27 30 34 35 35 35 33 32 30 26 26 23 26 28 32 26 24 27 27 20 18 19 20 20 15
Wind_Direction
163 164 164 165 171 169 176 142 148 157 161 139 123 124 127 176 170 78 16 22 10 341 343 339 343 341 344 354 349 343 340 340 344 349 348 350 353 0 6 6 5 359 357
174 177 169 185 193 193 192 205 203 181 156 126 136 126 131 159 220 210 341 11 1 338 307 297 310 316 322 325 321 321 322 321 326 335 336 340 343 344 345 343 345 348 349
189 186 196 186 192 205 228 224 208 209 252 270 214 175 194 169 199 249 320 318 298 300 298 279 291 291 292 302 304 302 305 307 311 321 330 338 340 332 331 331 332 334 336
195 202 205 204 208 217 238 226 219 232 240 256 265 267 255 262 217 231 290 301 266 273 272 275 276 276 285 290 293 288 291 297 298 304 309 326 327 319 322 322 322 324 327
205 207 215 212 219 227 236 231 228 233 222 224 243 261 266 260 263 270 293 296 262 270 267 271 267 276 282 288 286 286 288 293 293 290 293 305 312 314 314 315 315 317 319
228 224 227 222 223 235 243 238 237 230 221 224 240 251 247 263 282 275 283 279 264 264 263 268 275 275 277 277 276 271 289 293 291 293 292 297 296 299 310 310 312 312 308
229 233 230 227 235 243 244 247 242 236 229 226 226 236 238 254 271 266 266 269 277 274 278 279 282 287 285 270 265 274 294 294 295 297 305 301 305 305 305 302 300 301 302
239 237 226 237 243 244 245 244 244 249 243 232 232 234 230 244 251 256 258 270 271 260 253 269 278 280 281 279 272 286 291 286 289 298 303 305 306 309 307 304 301 299 298
237 235 232 234 243 244 244 245 250 251 249 247 236 239 237 233 230 234 241 252 258 252 262 269 268 276 277 275 277 280 278 283 290 295 300 304 304 309 308 306 302 302 302
237 236 240 239 240 245 249 257 275 257 260 252 246 238 240 259 199 202 240 245 243 249 254 263 277 280 272 268 264 267 275 281 285 294 297 302 306 309 311 306 305 305 304
241 245 244 238 240 241 244 264 266 256 258 247 262 238 236 248 254 263 271 259 234 246 261 265 274 273 265 258 261 263 271 272 286 289 291 299 303 313 318 308 306 303 304
240 246 247 250 249 245 248 257 258 260 261 250 254 228 242 248 246 252 254 261 257 269 249 252 264 267 258 254 259 269 272 285 286 287 293 296 301 312 319 314 307 306 301
240 245 249 251 250 248 250 255 256 260 253 250 244 227 241 244 244 256 270 262 268 268 262 258 263 275 276 270 274 274 281 278 275 280 284 289 297 307 315 319 313 311 305
245 250 254 254 253 253 248 256 253 255 258 256 244 243 248 254 254 260 269 265 277 272 269 271 273 269 266 276 283 284 275 275 275 275 281 288 294 304 311 318 317 314 310
247 249 254 246 236 248 254 262 254 257 256 247 243 246 256 258 261 266 265 270 261 272 278 280 287 284 265 268 279 278 278 279 276 279 281 288 295 300 306 315 314 313 312
243 247 257 250 248 256 243 263 254 249 233 238 247 251 263 271 268 274 272 268 263 274 281 283 285 288 279 274 273 280 281 281 280 280 281 284 289 295 304 307 307 305 312
236 235 243 246 239 244 249 256 246 230 235 238 243 252 257 262 264 268 262 261 267 270 277 282 283 280 278 280 283 275 273 278 278 274 272 275 284 292 294 296 295 301 310
230 214 226 233 235 241 245 244 235 229 232 238 246 248 256 265 264 270 272 272 276 277 280 283 281 281 281 284 283 278 275 275 272 273 273 275 278 283 285 280 287 297 302
208 216 230 236 245 243 235 236 232 234 234 226 236 253 264 268 272 277 275 279 284 283 280 280 282 284 285 287 285 282 279 273 272 269 261 269 278 276 271 273 288 293 287
224 226 234 244 236 229 224 222 220 218 211 228 246 267 278 290 293 291 284 283 289 290 287 283 282 284 285 285 285 285 279 277 278 270 261 254 278 267 267 277 284 278 283
230 235 231 221 209 199 199 202 201 208 230 248 259 280 269 267 273 281 294 290 285 283 284 288 288 290 289 289 287 288 284 280 279 262 263 268 253 265 271 276 280 274 287
213 208 195 187 183 183 186 194 212 227 238 249 260 264 273 275 271 268 269 270 278 286 286 288 289 291 289 294 290 291 288 285 281 278 268 268 267 260 265 276 275 284 277
184 182 178 175 167 182 197 210 224 225 234 254 263 272 279 281 284 285 284 284 282 279 278 284 288 290 292 289 291 287 286 287 283 278 268 259 258 256 270 276 278 275 277
169 171 173 174 178 183 191 202 223 239 262 278 282 285 288 291 294 297 300 298 298 297 297 298 294 291 288 286 281 287 286 287 281 273 267 252 256 265 275 277 273 274 281
167 165 160 176 178 184 203 227 250 267 277 284 286 290 298 304 305 306 308 308 307 309 311 311 309 304 297 295 286 281 276 279 261 262 250 247 261 268 277 273 271 272 282
149 161 170 176 183 208 224 248 260 273 286 291 299 306 310 312 315 318 316 315 315 318 320 316 316 316 315 304 299 284 271 270 256 253 243 250 260 265 269 274 272 275 265
Height
1565 1568 1570 1571 1576 1580 1581 1581 1582 1583 1583 1584 1583 1583 1584 1584 1584 1584 1585 1584 1584 1583 1583 1583 1583 1583 1583 1583 1583 1583 1583 1582 1581 1580 1579 1579 1578 1577 1576 1574 1572 1571 1570
1565 1567 1569 1572 1576 1579 1580 1581 1582 1583 1583 1583 1582 1583 1583 1584 1583 1583 1584 1582 1582 1582 1583 1584 1584 1583 1582 1582 1582 1583 1582 1581 1580 1579 1579 1578 1578 1578 1576 1575 1573 1571 1570
1565 1566 1568 1572 1575 1577 1579 1581 1581 1581 1581 1583 1583 1582 1584 1584 1583 1582 1582 1582 1582 1582 1582 1583 1583 1584 1583 1582 1582 1583 1582 1580 1578 1577 1577 1577 1577 1576 1575 1574 1572 1570 1569
1563 1565 1568 1571 1574 1576 1577 1579 1579 1580 1580 1580 1581 1582 1582 1582 1584 1583 1581 1581 1581 1581 1580 1582 1582 1582 1582 1581 1581 1581 1581 1579 1578 1576 1575 1574 1574 1574 1573 1572 1570 1569 1567
1561 1564 1568 1571 1572 1574 1575 1576 1577 1579 1579 1579 1580 1580 1580 1580 1580 1580 1580 1579 1578 1578 1579 1579 1580 1580 1579 1579 1578 1578 1579 1578 1576 1574 1572 1571 1571 1570 1569 1569 1568 1566 1565
1559 1563 1566 1568 1569 1572 1573 1574 1574 1575 1577 1578 1578 1578 1578 1578 1578 1578 1577 1578 1574 1574 1576 1576 1577 1577 1577 1576 1575 1575 1576 1575 1573 1571 1570 1568 1567 1566 1565 1565 1564 1564 1563
1556 1559 1562 1564 1566 1567 1569 1570 1571 1572 1574 1575 1574 1576 1575 1574 1575 1575 1573 1574 1575 1574 1572 1572 1572 1572 1572 1571 1571 1571 1571 1570 1569 1566 1565 1565 1563 1562 1561 1561 1560 1559 1558
1553 1555 1557 1558 1560 1562 1563 1564 1565 1567 1569 1572 1572 1572 1571 1571 1571 1571 1570 1569 1571 1570 1570 1569 1568 1568 1567 1566 1566 1566 1566 1565 1564 1563 1561 1560 1558 1557 1556 1555 1555 1554 1552
1547 1549 1553 1556 1557 1559 1558 1559 1559 1560 1562 1566 1567 1569 1567 1564 1564 1567 1567 1566 1566 1566 1566 1565 1564 1564 1564 1562 1561 1560 1560 1560 1559 1558 1557 1556 1554 1553 1552 1550 1549 1547 1545
1541 1544 1548 1550 1551 1553 1553 1553 1554 1554 1555 1556 1559 1563 1562 1562 1562 1563 1563 1562 1563 1562 1562 1562 1561 1559 1560 1558 1556 1555 1555 1555 1554 1553 1553 1552 1551 1549 1547 1544 1542 1539 1538
1537 1541 1543 1544 1544 1545 1547 1548 1549 1548 1548 1549 1550 1554 1555 1557 1560 1562 1560 1559 1558 1558 1557 1557 1558 1557 1556 1554 1551 1551 1550 1550 1549 1548 1547 1546 1546 1545 1542 1539 1535 1533 1531
1530 1534 1537 1538 1539 1539 1541 1542 1543 1543 1542 1542 1543 1547 1551 1553 1554 1556 1554 1554 1554 1554 1552 1552 1551 1550 1550 1548 1546 1546 1545 1544 1542 1541 1540 1540 1540 1538 1536 1532 1528 1526 1524
1524 1525 1529 1531 1533 1534 1535 1536 1537 1537 1538 1538 1537 1541 1545 1548 1549 1550 1550 1549 1547 1548 1547 1547 1546 1544 1545 1545 1542 1540 1538 1536 1535 1535 1535 1534 1533 1532 1529 1526 1522 1519 1517
1517 1522 1524 1523 1526 1527 1529 1530 1531 1531 1533 1532 1536 1540 1541 1543 1543 1545 1544 1544 1541 1541 1540 1539 1540 1540 1539 1538 1536 1534 1532 1531 1529 1528 1527 1527 1526 1524 1521 1518 1516 1513 1511
1516 1517 1517 1518 1521 1523 1524 1525 1525 1527 1527 1530 1533 1535 1537 1537 1539 1540 1539 1538 1538 1535 1532 1533 1533 1534 1534 1532 1531 1529 1526 1525 1522 1520 1519 1518 1517 1515 1513 1511 1509 1506 1504
1505 1509 1510 1513 1515 1517 1518 1519 1520 1520 1523 1526 1529 1530 1532 1534 1534 1534 1534 1534 1534 1532 1526 1527 1526 1527 1527 1527 1526 1523 1520 1518 1515 1512 1510 1509 1508 1507 1505 1503 1501 1500 1498
1497 1501 1505 1508 1510 1511 1513 1514 1515 1516 1519 1521 1522 1525 1527 1528 1529 1529 1529 1529 1528 1528 1522 1519 1519 1520 1518 1518 1517 1515 1513 1509 1506 1503 1500 1499 1498 1498 1497 1496 1494 1492 1491
1492 1493 1499 1502 1504 1506 1507 1508 1510 1512 1513 1516 1518 1521 1522 1522 1523 1523 1523 1523 1522 1521 1519 1512 1510 1510 1509 1509 1508 1506 1504 1501 1496 1498 1497 1493 1488 1489 1489 1487 1486 1484 1483
1486 1489 1493 1496 1498 1500 1501 1504 1506 1508 1511 1512 1514 1516 1517 1517 1517 1517 1517 1516 1516 1514 1512 1507 1501 1500 1498 1498 1497 1495 1492 1491 1490 1487 1484 1485 1483 1481 1480 1479 1478 1476 1475
1481 1485 1488 1491 1492 1494 1496 1499 1502 1505 1507 1509 1510 1512 1513 1513 1512 1512 1511 1510 1509 1506 1504 1500 1495 1491 1489 1488 1487 1484 1482 1481 1479 1478 1476 1474 1473 1474 1472 1471 1470 1468 1467
1478 1481 1483 1485 1487 1490 1493 1496 1499 1502 1504 1506 1507 1508 1508 1507 1507 1507 1505 1503 1500 1497 1494 1490 1485 1483 1478 1477 1476 1474 1471 1470 1468 1465 1466 1465 1465 1465 1464 1464 1463 1461 1460
1474 1477 1479 1482 1485 1488 1492 1494 1496 1499 1501 1502 1503 1504 1503 1503 1500 1498 1497 1495 1493 1488 1485 1481 1476 1473 1469 1467 1465 1463 1461 1459 1456 1458 1455 1452 1455 1456 1455 1455 1456 1454 1452
1472 1475 1478 1481 1484 1487 1490 1491 1494 1495 1497 1498 1498 1498 1498 1497 1495 1491 1488 1486 1483 1482 1478 1473 1466 1463 1459 1457 1454 1451 1449 1448 1445 1446 1445 1444 1447 1447 1448 1449 1447 1446 1446
1472 1474 1477 1479 1482 1485 1487 1489 1491 1492 1493 1494 1493 1492 1492 1490 1488 1484 1480 1476 1473 1470 1467 1463 1458 1452 1449 1445 1444 1441 1438 1436 1435 1435 1436 1435 1438 1439 1441 1440 1440 1440 1440
1470 1473 1476 1476 1480 1483 1485 1486 1487 1488 1489 1489 1488 1486 1484 1481 1478 1476 1470 1465 1462 1460 1456 1452 1447 1442 1438 1434 1432 1431 1428 1428 1425 1424 1426 1429 1431 1432 1432 1432 1433 1434 1434
1470 1471 1473 1477 1479 1481 1482 1482 1483 1483 1483 1482 1481 1480 1477 1475 1472 1469 1464 1459 1452 1449 1444 1439 1437 1432 1427 1423 1422 1420 1419 1418 1417 1417 1418 1422 1424 1426 1425 1424 1427 1428 1428